#datetime,building,power
2023-06-02T00:00:00,mcc,32.92
2023-06-02T00:01:00,mcc,34.06
2023-06-02T00:02:00,mcc,37.24
2023-06-02T00:03:00,mcc,36.66
2023-06-02T00:04:00,mcc,45.33
2023-06-02T00:05:00,mcc,45.91
2023-06-02T00:06:00,mcc,43.56
2023-06-02T00:07:00,mcc,45.28
2023-06-02T00:08:00,mcc,45.79
2023-06-02T00:09:00,mcc,37.73
2023-06-02T00:10:00,mcc,34.97
2023-06-02T00:11:00,mcc,36.08
2023-06-02T00:12:00,mcc,36.12
2023-06-02T00:13:00,mcc,35.34
2023-06-02T00:14:00,mcc,34.78
2023-06-02T00:15:00,mcc,34.18
2023-06-02T00:16:00,mcc,33.26
2023-06-02T00:17:00,mcc,35.80
2023-06-02T00:18:00,mcc,36.42
2023-06-02T00:19:00,mcc,37.38
2023-06-02T00:20:00,mcc,39.95
2023-06-02T00:21:00,mcc,39.17
2023-06-02T00:22:00,mcc,37.88
2023-06-02T00:23:00,mcc,37.39
2023-06-02T00:24:00,mcc,45.35
2023-06-02T00:25:00,mcc,38.04
2023-06-02T00:26:00,mcc,40.07
2023-06-02T00:27:00,mcc,38.87
2023-06-02T00:28:00,mcc,36.75
2023-06-02T00:29:00,mcc,36.48
2023-06-02T00:30:00,mcc,34.97
2023-06-02T00:31:00,mcc,34.48
2023-06-02T00:32:00,mcc,34.54
2023-06-02T00:33:00,mcc,37.94
2023-06-02T00:34:00,mcc,37.66
2023-06-02T00:35:00,mcc,37.55
2023-06-02T00:36:00,mcc,37.59
2023-06-02T00:37:00,mcc,38.33
2023-06-02T00:38:00,mcc,37.99
2023-06-02T00:39:00,mcc,37.28
2023-06-02T00:40:00,mcc,35.36
2023-06-02T00:41:00,mcc,32.87
2023-06-02T00:42:00,mcc,34.38
2023-06-02T00:43:00,mcc,34.68
2023-06-02T00:44:00,mcc,36.46
2023-06-02T00:45:00,mcc,44.59
2023-06-02T00:46:00,mcc,36.08
2023-06-02T00:47:00,mcc,36.07
2023-06-02T00:48:00,mcc,35.31
2023-06-02T00:49:00,mcc,36.86
2023-06-02T00:50:00,mcc,35.95
2023-06-02T00:51:00,mcc,34.97
2023-06-02T00:52:00,mcc,35.09
2023-06-02T00:53:00,mcc,33.88
2023-06-02T00:54:00,mcc,36.20
2023-06-02T00:55:00,mcc,35.08
2023-06-02T00:56:00,mcc,34.83
2023-06-02T00:57:00,mcc,34.16
2023-06-02T00:58:00,mcc,34.50
2023-06-02T00:59:00,mcc,35.13
2023-06-02T01:00:00,mcc,35.36
2023-06-02T01:01:00,mcc,37.05
2023-06-02T01:02:00,mcc,38.42
2023-06-02T01:03:00,mcc,38.64
2023-06-02T01:04:00,mcc,38.30
2023-06-02T01:05:00,mcc,51.15
2023-06-02T01:06:00,mcc,38.47
2023-06-02T01:07:00,mcc,37.30
2023-06-02T01:08:00,mcc,38.35
2023-06-02T01:09:00,mcc,39.34
2023-06-02T01:10:00,mcc,39.98
2023-06-02T01:11:00,mcc,39.26
2023-06-02T01:12:00,mcc,39.06
2023-06-02T01:13:00,mcc,36.77
2023-06-02T01:14:00,mcc,36.32
2023-06-02T01:15:00,mcc,37.64
2023-06-02T01:16:00,mcc,36.71
2023-06-02T01:17:00,mcc,36.96
2023-06-02T01:18:00,mcc,37.09
2023-06-02T01:19:00,mcc,35.17
2023-06-02T01:20:00,mcc,34.77
2023-06-02T01:21:00,mcc,33.83
2023-06-02T01:22:00,mcc,34.09
2023-06-02T01:23:00,mcc,33.71
2023-06-02T01:24:00,mcc,33.50
2023-06-02T01:25:00,mcc,34.01
2023-06-02T01:26:00,mcc,41.09
2023-06-02T01:27:00,mcc,36.15
2023-06-02T01:28:00,mcc,35.56
2023-06-02T01:29:00,mcc,36.11
2023-06-02T01:30:00,mcc,34.15
2023-06-02T01:31:00,mcc,34.08
2023-06-02T01:32:00,mcc,33.57
2023-06-02T01:33:00,mcc,34.78
2023-06-02T01:34:00,mcc,35.51
2023-06-02T01:35:00,mcc,32.92
2023-06-02T01:36:00,mcc,34.31
2023-06-02T01:37:00,mcc,34.95
2023-06-02T01:38:00,mcc,35.35
2023-06-02T01:39:00,mcc,35.54
2023-06-02T01:40:00,mcc,34.64
2023-06-02T01:41:00,mcc,34.59
2023-06-02T01:42:00,mcc,36.12
2023-06-02T01:43:00,mcc,36.57
2023-06-02T01:44:00,mcc,38.38
2023-06-02T01:45:00,mcc,37.95
2023-06-02T01:46:00,mcc,37.43
2023-06-02T01:47:00,mcc,44.82
2023-06-02T01:48:00,mcc,36.08
2023-06-02T01:49:00,mcc,36.16
2023-06-02T01:50:00,mcc,35.65
2023-06-02T01:51:00,mcc,37.08
2023-06-02T01:52:00,mcc,35.78
2023-06-02T01:53:00,mcc,37.09
2023-06-02T01:54:00,mcc,36.19
2023-06-02T01:55:00,mcc,35.99
2023-06-02T01:56:00,mcc,34.68
2023-06-02T01:57:00,mcc,34.90
2023-06-02T01:58:00,mcc,34.91
2023-06-02T01:59:00,mcc,34.93
2023-06-02T02:00:00,mcc,37.17
2023-06-02T02:01:00,mcc,38.14
2023-06-02T02:02:00,mcc,37.81
2023-06-02T02:03:00,mcc,38.32
2023-06-02T02:04:00,mcc,39.93
2023-06-02T02:05:00,mcc,40.65
2023-06-02T02:06:00,mcc,41.28
2023-06-02T02:07:00,mcc,41.00
2023-06-02T02:08:00,mcc,47.92
2023-06-02T02:09:00,mcc,37.48
2023-06-02T02:10:00,mcc,36.08
2023-06-02T02:11:00,mcc,35.85
2023-06-02T02:12:00,mcc,35.55
2023-06-02T02:13:00,mcc,35.02
2023-06-02T02:14:00,mcc,34.53
2023-06-02T02:15:00,mcc,44.13
2023-06-02T02:16:00,mcc,43.63
2023-06-02T02:17:00,mcc,42.57
2023-06-02T02:18:00,mcc,31.62
2023-06-02T02:19:00,mcc,34.79
2023-06-02T02:20:00,mcc,34.62
2023-06-02T02:21:00,mcc,35.56
2023-06-02T02:22:00,mcc,34.87
2023-06-02T02:23:00,mcc,34.82
2023-06-02T02:24:00,mcc,34.53
2023-06-02T02:25:00,mcc,35.74
2023-06-02T02:26:00,mcc,36.43
2023-06-02T02:27:00,mcc,35.27
2023-06-02T02:28:00,mcc,46.98
2023-06-02T02:29:00,mcc,42.36
2023-06-02T02:30:00,mcc,35.06
2023-06-02T02:31:00,mcc,34.13
2023-06-02T02:32:00,mcc,33.96
2023-06-02T02:33:00,mcc,34.75
2023-06-02T02:34:00,mcc,37.93
2023-06-02T02:35:00,mcc,37.51
2023-06-02T02:36:00,mcc,37.55
2023-06-02T02:37:00,mcc,36.11
2023-06-02T02:38:00,mcc,35.22
2023-06-02T02:39:00,mcc,34.81
2023-06-02T02:40:00,mcc,36.94
2023-06-02T02:41:00,mcc,37.09
2023-06-02T02:42:00,mcc,34.11
2023-06-02T02:43:00,mcc,34.13
2023-06-02T02:44:00,mcc,32.89
2023-06-02T02:45:00,mcc,31.95
2023-06-02T02:46:00,mcc,31.31
2023-06-02T02:47:00,mcc,32.46
2023-06-02T02:48:00,mcc,31.54
2023-06-02T02:49:00,mcc,35.28
2023-06-02T02:50:00,mcc,44.50
2023-06-02T02:51:00,mcc,36.96
2023-06-02T02:52:00,mcc,37.21
2023-06-02T02:53:00,mcc,36.96
2023-06-02T02:54:00,mcc,38.03
2023-06-02T02:55:00,mcc,37.12
2023-06-02T02:56:00,mcc,36.68
2023-06-02T02:57:00,mcc,36.09
2023-06-02T02:58:00,mcc,33.64
2023-06-02T02:59:00,mcc,34.83
2023-06-02T03:00:00,mcc,35.26
2023-06-02T03:01:00,mcc,35.24
2023-06-02T03:02:00,mcc,36.04
2023-06-02T03:03:00,mcc,35.07
2023-06-02T03:04:00,mcc,34.91
2023-06-02T03:05:00,mcc,35.52
2023-06-02T03:06:00,mcc,37.48
2023-06-02T03:07:00,mcc,38.70
2023-06-02T03:08:00,mcc,38.39
2023-06-02T03:09:00,mcc,36.90
2023-06-02T03:10:00,mcc,36.52
2023-06-02T03:11:00,mcc,35.85
2023-06-02T03:12:00,mcc,35.07
2023-06-02T03:13:00,mcc,34.98
2023-06-02T03:14:00,mcc,34.24
2023-06-02T03:15:00,mcc,34.63
2023-06-02T03:16:00,mcc,31.95
2023-06-02T03:17:00,mcc,31.77
2023-06-02T03:18:00,mcc,31.87
2023-06-02T03:19:00,mcc,30.50
2023-06-02T03:20:00,mcc,31.51
2023-06-02T03:21:00,mcc,32.73
2023-06-02T03:22:00,mcc,34.15
2023-06-02T03:23:00,mcc,34.60
2023-06-02T03:24:00,mcc,35.64
2023-06-02T03:25:00,mcc,35.58
2023-06-02T03:26:00,mcc,36.20
2023-06-02T03:27:00,mcc,37.74
2023-06-02T03:28:00,mcc,36.18
2023-06-02T03:29:00,mcc,35.90
2023-06-02T03:30:00,mcc,37.83
2023-06-02T03:31:00,mcc,35.45
2023-06-02T03:32:00,mcc,40.58
2023-06-02T03:33:00,mcc,34.40
2023-06-02T03:34:00,mcc,35.03
2023-06-02T03:35:00,mcc,36.98
2023-06-02T03:36:00,mcc,36.74
2023-06-02T03:37:00,mcc,36.52
2023-06-02T03:38:00,mcc,36.98
2023-06-02T03:39:00,mcc,34.14
2023-06-02T03:40:00,mcc,33.26
2023-06-02T03:41:00,mcc,35.47
2023-06-02T03:42:00,mcc,35.13
2023-06-02T03:43:00,mcc,35.69
2023-06-02T03:44:00,mcc,36.43
2023-06-02T03:45:00,mcc,37.22
2023-06-02T03:46:00,mcc,33.83
2023-06-02T03:47:00,mcc,34.07
2023-06-02T03:48:00,mcc,33.50
2023-06-02T03:49:00,mcc,32.73
2023-06-02T03:50:00,mcc,35.39
2023-06-02T03:51:00,mcc,34.68
2023-06-02T03:52:00,mcc,49.00
2023-06-02T03:53:00,mcc,56.83
2023-06-02T03:54:00,mcc,33.63
2023-06-02T03:55:00,mcc,34.26
2023-06-02T03:56:00,mcc,34.06
2023-06-02T03:57:00,mcc,37.08
2023-06-02T03:58:00,mcc,35.69
2023-06-02T03:59:00,mcc,38.11
2023-06-02T04:00:00,mcc,38.41
2023-06-02T04:01:00,mcc,35.80
2023-06-02T04:02:00,mcc,35.11
2023-06-02T04:03:00,mcc,34.44
2023-06-02T04:04:00,mcc,34.70
2023-06-02T04:05:00,mcc,35.18
2023-06-02T04:06:00,mcc,36.62
2023-06-02T04:07:00,mcc,36.65
2023-06-02T04:08:00,mcc,35.14
2023-06-02T04:09:00,mcc,36.43
2023-06-02T04:10:00,mcc,36.04
2023-06-02T04:11:00,mcc,37.62
2023-06-02T04:12:00,mcc,35.85
2023-06-02T04:13:00,mcc,43.26
2023-06-02T04:14:00,mcc,36.83
2023-06-02T04:15:00,mcc,37.80
2023-06-02T04:16:00,mcc,38.70
2023-06-02T04:17:00,mcc,38.25
2023-06-02T04:18:00,mcc,38.91
2023-06-02T04:19:00,mcc,40.40
2023-06-02T04:20:00,mcc,39.07
2023-06-02T04:21:00,mcc,39.48
2023-06-02T04:22:00,mcc,36.53
2023-06-02T04:23:00,mcc,33.90
2023-06-02T04:24:00,mcc,32.45
2023-06-02T04:25:00,mcc,33.35
2023-06-02T04:26:00,mcc,35.30
2023-06-02T04:27:00,mcc,34.74
2023-06-02T04:28:00,mcc,36.36
2023-06-02T04:29:00,mcc,32.40
2023-06-02T04:30:00,mcc,33.74
2023-06-02T04:31:00,mcc,34.15
2023-06-02T04:32:00,mcc,33.85
2023-06-02T04:33:00,mcc,43.51
2023-06-02T04:34:00,mcc,36.21
2023-06-02T04:35:00,mcc,39.71
2023-06-02T04:36:00,mcc,39.74
2023-06-02T04:37:00,mcc,38.84
2023-06-02T04:38:00,mcc,36.76
2023-06-02T04:39:00,mcc,36.47
2023-06-02T04:40:00,mcc,36.93
2023-06-02T04:41:00,mcc,36.23
2023-06-02T04:42:00,mcc,38.43
2023-06-02T04:43:00,mcc,38.58
2023-06-02T04:44:00,mcc,37.76
2023-06-02T04:45:00,mcc,37.82
2023-06-02T04:46:00,mcc,36.94
2023-06-02T04:47:00,mcc,39.32
2023-06-02T04:48:00,mcc,39.33
2023-06-02T04:49:00,mcc,39.33
2023-06-02T04:50:00,mcc,40.66
2023-06-02T04:51:00,mcc,37.98
2023-06-02T04:52:00,mcc,37.54
2023-06-02T04:53:00,mcc,39.24
2023-06-02T04:54:00,mcc,39.63
2023-06-02T04:55:00,mcc,48.04
2023-06-02T04:56:00,mcc,39.99
2023-06-02T04:57:00,mcc,39.99
2023-06-02T04:58:00,mcc,37.95
2023-06-02T04:59:00,mcc,38.96
2023-06-02T05:00:00,mcc,39.02
2023-06-02T05:01:00,mcc,38.77
2023-06-02T05:02:00,mcc,38.51
2023-06-02T05:03:00,mcc,37.62
2023-06-02T05:04:00,mcc,38.87
2023-06-02T05:05:00,mcc,36.44
2023-06-02T05:06:00,mcc,35.59
2023-06-02T05:07:00,mcc,36.43
2023-06-02T05:08:00,mcc,35.45
2023-06-02T05:09:00,mcc,34.22
2023-06-02T05:10:00,mcc,34.72
2023-06-02T05:11:00,mcc,36.03
2023-06-02T05:12:00,mcc,35.06
2023-06-02T05:13:00,mcc,34.32
2023-06-02T05:14:00,mcc,34.81
2023-06-02T05:15:00,mcc,47.88
2023-06-02T05:16:00,mcc,47.48
2023-06-02T05:17:00,mcc,34.28
2023-06-02T05:18:00,mcc,34.39
2023-06-02T05:19:00,mcc,33.03
2023-06-02T05:20:00,mcc,33.65
2023-06-02T05:21:00,mcc,34.38
2023-06-02T05:22:00,mcc,34.77
2023-06-02T05:23:00,mcc,36.74
2023-06-02T05:24:00,mcc,36.68
2023-06-02T05:25:00,mcc,37.79
2023-06-02T05:26:00,mcc,38.79
2023-06-02T05:27:00,mcc,39.88
2023-06-02T05:28:00,mcc,37.51
2023-06-02T05:29:00,mcc,35.86
2023-06-02T05:30:00,mcc,35.54
2023-06-02T05:31:00,mcc,34.97
2023-06-02T05:32:00,mcc,34.88
2023-06-02T05:33:00,mcc,35.57
2023-06-02T05:34:00,mcc,35.97
2023-06-02T05:35:00,mcc,33.78
2023-06-02T05:36:00,mcc,33.42
2023-06-02T05:37:00,mcc,35.27
2023-06-02T05:38:00,mcc,36.63
2023-06-02T05:39:00,mcc,37.34
2023-06-02T05:40:00,mcc,36.97
2023-06-02T05:41:00,mcc,48.12
2023-06-02T05:42:00,mcc,46.48
2023-06-02T05:43:00,mcc,46.31
2023-06-02T05:44:00,mcc,46.79
2023-06-02T05:45:00,mcc,46.44
2023-06-02T05:46:00,mcc,35.23
2023-06-02T05:47:00,mcc,33.39
2023-06-02T05:48:00,mcc,41.44
2023-06-02T05:49:00,mcc,34.84
2023-06-02T05:50:00,mcc,33.59
2023-06-02T05:51:00,mcc,34.36
2023-06-02T05:52:00,mcc,34.89
2023-06-02T05:53:00,mcc,36.02
2023-06-02T05:54:00,mcc,38.60
2023-06-02T05:55:00,mcc,38.50
2023-06-02T05:56:00,mcc,40.17
2023-06-02T05:57:00,mcc,39.44
2023-06-02T05:58:00,mcc,37.73
2023-06-02T05:59:00,mcc,38.74
2023-06-02T06:00:00,mcc,38.78
2023-06-02T06:01:00,mcc,55.97
2023-06-02T06:02:00,mcc,38.21
2023-06-02T06:03:00,mcc,37.62
2023-06-02T06:04:00,mcc,38.49
2023-06-02T06:05:00,mcc,45.02
2023-06-02T06:06:00,mcc,42.88
2023-06-02T06:07:00,mcc,43.77
2023-06-02T06:08:00,mcc,43.14
2023-06-02T06:09:00,mcc,40.86
2023-06-02T06:10:00,mcc,42.40
2023-06-02T06:11:00,mcc,42.72
2023-06-02T06:12:00,mcc,45.04
2023-06-02T06:13:00,mcc,58.40
2023-06-02T06:14:00,mcc,53.97
2023-06-02T06:15:00,mcc,53.81
2023-06-02T06:16:00,mcc,63.19
2023-06-02T06:17:00,mcc,62.65
2023-06-02T06:18:00,mcc,60.93
2023-06-02T06:19:00,mcc,60.74
2023-06-02T06:20:00,mcc,63.23
2023-06-02T06:21:00,mcc,64.20
2023-06-02T06:22:00,mcc,62.33
2023-06-02T06:23:00,mcc,61.24
2023-06-02T06:24:00,mcc,59.27
2023-06-02T06:25:00,mcc,61.13
2023-06-02T06:26:00,mcc,60.37
2023-06-02T06:27:00,mcc,62.02
2023-06-02T06:28:00,mcc,55.35
2023-06-02T06:29:00,mcc,53.51
2023-06-02T06:30:00,mcc,50.57
2023-06-02T06:31:00,mcc,50.10
2023-06-02T06:32:00,mcc,50.09
2023-06-02T06:33:00,mcc,50.75
2023-06-02T06:34:00,mcc,58.35
2023-06-02T06:35:00,mcc,49.54
2023-06-02T06:36:00,mcc,53.04
2023-06-02T06:37:00,mcc,60.37
2023-06-02T06:38:00,mcc,50.32
2023-06-02T06:39:00,mcc,57.48
2023-06-02T06:40:00,mcc,49.73
2023-06-02T06:41:00,mcc,67.56
2023-06-02T06:42:00,mcc,50.19
2023-06-02T06:43:00,mcc,50.05
2023-06-02T06:44:00,mcc,52.38
2023-06-02T06:45:00,mcc,51.64
2023-06-02T06:46:00,mcc,50.91
2023-06-02T06:47:00,mcc,52.89
2023-06-02T06:48:00,mcc,50.92
2023-06-02T06:49:00,mcc,51.91
2023-06-02T06:50:00,mcc,54.17
2023-06-02T06:51:00,mcc,62.62
2023-06-02T06:52:00,mcc,62.70
2023-06-02T06:53:00,mcc,56.06
2023-06-02T06:54:00,mcc,74.05
2023-06-02T06:55:00,mcc,68.26
2023-06-02T06:56:00,mcc,62.33
2023-06-02T06:57:00,mcc,52.03
2023-06-02T06:58:00,mcc,52.91
2023-06-02T06:59:00,mcc,52.28
2023-06-02T07:00:00,mcc,53.55
2023-06-02T07:01:00,mcc,58.93
2023-06-02T07:02:00,mcc,60.33
2023-06-02T07:03:00,mcc,55.62
2023-06-02T07:04:00,mcc,57.80
2023-06-02T07:05:00,mcc,56.16
2023-06-02T07:06:00,mcc,64.42
2023-06-02T07:07:00,mcc,63.28
2023-06-02T07:08:00,mcc,52.81
2023-06-02T07:09:00,mcc,66.15
2023-06-02T07:10:00,mcc,67.39
2023-06-02T07:11:00,mcc,54.91
2023-06-02T07:12:00,mcc,56.16
2023-06-02T07:13:00,mcc,56.05
2023-06-02T07:14:00,mcc,63.71
2023-06-02T07:15:00,mcc,63.64
2023-06-02T07:16:00,mcc,71.20
2023-06-02T07:17:00,mcc,54.36
2023-06-02T07:18:00,mcc,53.75
2023-06-02T07:19:00,mcc,53.27
2023-06-02T07:20:00,mcc,54.19
2023-06-02T07:21:00,mcc,54.15
2023-06-02T07:22:00,mcc,55.09
2023-06-02T07:23:00,mcc,55.91
2023-06-02T07:24:00,mcc,55.30
2023-06-02T07:25:00,mcc,56.02
2023-06-02T07:26:00,mcc,55.68
2023-06-02T07:27:00,mcc,55.70
2023-06-02T07:28:00,mcc,63.69
2023-06-02T07:29:00,mcc,55.70
2023-06-02T07:30:00,mcc,53.67
2023-06-02T07:31:00,mcc,55.59
2023-06-02T07:32:00,mcc,54.46
2023-06-02T07:33:00,mcc,66.01
2023-06-02T07:34:00,mcc,83.24
2023-06-02T07:35:00,mcc,65.40
2023-06-02T07:36:00,mcc,55.80
2023-06-02T07:37:00,mcc,55.44
2023-06-02T07:38:00,mcc,56.41
2023-06-02T07:39:00,mcc,54.27
2023-06-02T07:40:00,mcc,62.06
2023-06-02T07:41:00,mcc,53.95
2023-06-02T07:42:00,mcc,55.05
2023-06-02T07:43:00,mcc,70.01
2023-06-02T07:44:00,mcc,53.27
2023-06-02T07:45:00,mcc,52.82
2023-06-02T07:46:00,mcc,53.56
2023-06-02T07:47:00,mcc,63.64
2023-06-02T07:48:00,mcc,59.15
2023-06-02T07:49:00,mcc,60.70
2023-06-02T07:50:00,mcc,63.17
2023-06-02T07:51:00,mcc,62.11
2023-06-02T07:52:00,mcc,59.71
2023-06-02T07:53:00,mcc,65.62
2023-06-02T07:54:00,mcc,56.97
2023-06-02T07:55:00,mcc,64.53
2023-06-02T07:56:00,mcc,57.44
2023-06-02T07:57:00,mcc,56.13
2023-06-02T07:58:00,mcc,57.36
2023-06-02T07:59:00,mcc,68.31
2023-06-02T08:00:00,mcc,58.95
2023-06-02T08:01:00,mcc,60.61
2023-06-02T08:02:00,mcc,62.38
2023-06-02T08:03:00,mcc,61.29
2023-06-02T08:04:00,mcc,60.19
2023-06-02T08:05:00,mcc,68.60
2023-06-02T08:06:00,mcc,61.22
2023-06-02T08:07:00,mcc,60.26
2023-06-02T08:08:00,mcc,62.23
2023-06-02T08:09:00,mcc,63.08
2023-06-02T08:10:00,mcc,61.68
2023-06-02T08:11:00,mcc,69.67
2023-06-02T08:12:00,mcc,61.51
2023-06-02T08:13:00,mcc,62.00
2023-06-02T08:14:00,mcc,70.70
2023-06-02T08:15:00,mcc,63.48
2023-06-02T08:16:00,mcc,63.43
2023-06-02T08:17:00,mcc,64.46
2023-06-02T08:18:00,mcc,63.07
2023-06-02T08:19:00,mcc,61.61
2023-06-02T08:20:00,mcc,61.28
2023-06-02T08:21:00,mcc,62.40
2023-06-02T08:22:00,mcc,60.62
2023-06-02T08:23:00,mcc,59.59
2023-06-02T08:24:00,mcc,60.60
2023-06-02T08:25:00,mcc,58.30
2023-06-02T08:26:00,mcc,58.52
2023-06-02T08:27:00,mcc,57.25
2023-06-02T08:28:00,mcc,58.17
2023-06-02T08:29:00,mcc,61.00
2023-06-02T08:30:00,mcc,69.01
2023-06-02T08:31:00,mcc,61.95
2023-06-02T08:32:00,mcc,61.44
2023-06-02T08:33:00,mcc,61.52
2023-06-02T08:34:00,mcc,70.14
2023-06-02T08:35:00,mcc,62.56
2023-06-02T08:36:00,mcc,69.72
2023-06-02T08:37:00,mcc,61.10
2023-06-02T08:38:00,mcc,60.47
2023-06-02T08:39:00,mcc,58.22
2023-06-02T08:40:00,mcc,59.64
2023-06-02T08:41:00,mcc,60.09
2023-06-02T08:42:00,mcc,66.75
2023-06-02T08:43:00,mcc,60.43
2023-06-02T08:44:00,mcc,61.58
2023-06-02T08:45:00,mcc,61.53
2023-06-02T08:46:00,mcc,61.98
2023-06-02T08:47:00,mcc,61.34
2023-06-02T08:48:00,mcc,69.33
2023-06-02T08:49:00,mcc,60.42
2023-06-02T08:50:00,mcc,60.80
2023-06-02T08:51:00,mcc,60.68
2023-06-02T08:52:00,mcc,77.25
2023-06-02T08:53:00,mcc,82.62
2023-06-02T08:54:00,mcc,84.94
2023-06-02T08:55:00,mcc,69.94
2023-06-02T08:56:00,mcc,61.76
2023-06-02T08:57:00,mcc,61.55
2023-06-02T08:58:00,mcc,63.82
2023-06-02T08:59:00,mcc,65.82
2023-06-02T09:00:00,mcc,63.72
2023-06-02T09:01:00,mcc,58.31
2023-06-02T09:02:00,mcc,64.48
2023-06-02T09:03:00,mcc,56.42
2023-06-02T09:04:00,mcc,56.15
2023-06-02T09:05:00,mcc,56.77
2023-06-02T09:06:00,mcc,57.64
2023-06-02T09:07:00,mcc,57.86
2023-06-02T09:08:00,mcc,58.73
2023-06-02T09:09:00,mcc,57.78
2023-06-02T09:10:00,mcc,60.17
2023-06-02T09:11:00,mcc,57.66
2023-06-02T09:12:00,mcc,57.53
2023-06-02T09:13:00,mcc,58.02
2023-06-02T09:14:00,mcc,66.44
2023-06-02T09:15:00,mcc,57.40
2023-06-02T09:16:00,mcc,56.86
2023-06-02T09:17:00,mcc,56.57
2023-06-02T09:18:00,mcc,56.94
2023-06-02T09:19:00,mcc,56.65
2023-06-02T09:20:00,mcc,58.43
2023-06-02T09:21:00,mcc,59.24
2023-06-02T09:22:00,mcc,57.10
2023-06-02T09:23:00,mcc,57.04
2023-06-02T09:24:00,mcc,56.05
2023-06-02T09:25:00,mcc,58.88
2023-06-02T09:26:00,mcc,58.81
2023-06-02T09:27:00,mcc,58.33
2023-06-02T09:28:00,mcc,60.97
2023-06-02T09:29:00,mcc,59.25
2023-06-02T09:30:00,mcc,59.64
2023-06-02T09:31:00,mcc,74.71
2023-06-02T09:32:00,mcc,58.61
2023-06-02T09:33:00,mcc,59.20
2023-06-02T09:34:00,mcc,58.24
2023-06-02T09:35:00,mcc,62.24
2023-06-02T09:36:00,mcc,60.73
2023-06-02T09:37:00,mcc,61.19
2023-06-02T09:38:00,mcc,70.12
2023-06-02T09:39:00,mcc,61.50
2023-06-02T09:40:00,mcc,68.60
2023-06-02T09:41:00,mcc,72.26
2023-06-02T09:42:00,mcc,72.62
2023-06-02T09:43:00,mcc,72.26
2023-06-02T09:44:00,mcc,64.60
2023-06-02T09:45:00,mcc,77.11
2023-06-02T09:46:00,mcc,64.48
2023-06-02T09:47:00,mcc,69.91
2023-06-02T09:48:00,mcc,62.19
2023-06-02T09:49:00,mcc,61.27
2023-06-02T09:50:00,mcc,67.60
2023-06-02T09:51:00,mcc,58.90
2023-06-02T09:52:00,mcc,84.18
2023-06-02T09:53:00,mcc,69.06
2023-06-02T09:54:00,mcc,70.19
2023-06-02T09:55:00,mcc,69.32
2023-06-02T09:56:00,mcc,68.44
2023-06-02T09:57:00,mcc,71.05
2023-06-02T09:58:00,mcc,63.78
2023-06-02T09:59:00,mcc,63.06
2023-06-02T10:00:00,mcc,62.59
2023-06-02T10:01:00,mcc,70.34
2023-06-02T10:02:00,mcc,59.83
2023-06-02T10:03:00,mcc,60.70
2023-06-02T10:04:00,mcc,70.44
2023-06-02T10:05:00,mcc,60.66
2023-06-02T10:06:00,mcc,62.60
2023-06-02T10:07:00,mcc,85.04
2023-06-02T10:08:00,mcc,77.47
2023-06-02T10:09:00,mcc,60.98
2023-06-02T10:10:00,mcc,60.31
2023-06-02T10:11:00,mcc,67.37
2023-06-02T10:12:00,mcc,60.99
2023-06-02T10:13:00,mcc,61.05
2023-06-02T10:14:00,mcc,62.43
2023-06-02T10:15:00,mcc,70.03
2023-06-02T10:16:00,mcc,61.70
2023-06-02T10:17:00,mcc,64.53
2023-06-02T10:18:00,mcc,64.12
2023-06-02T10:19:00,mcc,83.65
2023-06-02T10:20:00,mcc,61.04
2023-06-02T10:21:00,mcc,59.99
2023-06-02T10:22:00,mcc,82.54
2023-06-02T10:23:00,mcc,60.25
2023-06-02T10:24:00,mcc,62.02
2023-06-02T10:25:00,mcc,62.35
2023-06-02T10:26:00,mcc,70.59
2023-06-02T10:27:00,mcc,73.69
2023-06-02T10:28:00,mcc,65.14
2023-06-02T10:29:00,mcc,65.15
2023-06-02T10:30:00,mcc,71.15
2023-06-02T10:31:00,mcc,62.53
2023-06-02T10:32:00,mcc,63.63
2023-06-02T10:33:00,mcc,78.00
2023-06-02T10:34:00,mcc,69.32
2023-06-02T10:35:00,mcc,61.00
2023-06-02T10:36:00,mcc,61.32
2023-06-02T10:37:00,mcc,61.95
2023-06-02T10:38:00,mcc,69.30
2023-06-02T10:39:00,mcc,61.34
2023-06-02T10:40:00,mcc,60.70
2023-06-02T10:41:00,mcc,59.83
2023-06-02T10:42:00,mcc,67.40
2023-06-02T10:43:00,mcc,67.18
2023-06-02T10:44:00,mcc,59.80
2023-06-02T10:45:00,mcc,59.82
2023-06-02T10:46:00,mcc,74.84
2023-06-02T10:47:00,mcc,57.66
2023-06-02T10:48:00,mcc,66.08
2023-06-02T10:49:00,mcc,57.37
2023-06-02T10:50:00,mcc,72.43
2023-06-02T10:51:00,mcc,57.93
2023-06-02T10:52:00,mcc,67.86
2023-06-02T10:53:00,mcc,67.23
2023-06-02T10:54:00,mcc,66.96
2023-06-02T10:55:00,mcc,59.28
2023-06-02T10:56:00,mcc,58.34
2023-06-02T10:57:00,mcc,59.79
2023-06-02T10:58:00,mcc,67.62
2023-06-02T10:59:00,mcc,68.54
2023-06-02T11:00:00,mcc,61.48
2023-06-02T11:01:00,mcc,62.51
2023-06-02T11:02:00,mcc,61.96
2023-06-02T11:03:00,mcc,68.78
2023-06-02T11:04:00,mcc,72.62
2023-06-02T11:05:00,mcc,73.25
2023-06-02T11:06:00,mcc,64.84
2023-06-02T11:07:00,mcc,66.01
2023-06-02T11:08:00,mcc,74.52
2023-06-02T11:09:00,mcc,73.55
2023-06-02T11:10:00,mcc,64.28
2023-06-02T11:11:00,mcc,64.66
2023-06-02T11:12:00,mcc,66.12
2023-06-02T11:13:00,mcc,66.85
2023-06-02T11:14:00,mcc,67.22
2023-06-02T11:15:00,mcc,65.69
2023-06-02T11:16:00,mcc,62.91
2023-06-02T11:17:00,mcc,73.30
2023-06-02T11:18:00,mcc,79.25
2023-06-02T11:19:00,mcc,61.59
2023-06-02T11:20:00,mcc,60.70
2023-06-02T11:21:00,mcc,59.75
2023-06-02T11:22:00,mcc,61.55
2023-06-02T11:23:00,mcc,61.16
2023-06-02T11:24:00,mcc,69.10
2023-06-02T11:25:00,mcc,61.56
2023-06-02T11:26:00,mcc,60.73
2023-06-02T11:27:00,mcc,63.98
2023-06-02T11:28:00,mcc,60.42
2023-06-02T11:29:00,mcc,60.22
2023-06-02T11:30:00,mcc,59.46
2023-06-02T11:31:00,mcc,65.60
2023-06-02T11:32:00,mcc,73.48
2023-06-02T11:33:00,mcc,73.25
2023-06-02T11:34:00,mcc,65.11
2023-06-02T11:35:00,mcc,64.53
2023-06-02T11:36:00,mcc,65.65
2023-06-02T11:37:00,mcc,67.03
2023-06-02T11:38:00,mcc,67.97
2023-06-02T11:39:00,mcc,67.92
2023-06-02T11:40:00,mcc,64.92
2023-06-02T11:41:00,mcc,67.78
2023-06-02T11:42:00,mcc,64.70
2023-06-02T11:43:00,mcc,64.64
2023-06-02T11:44:00,mcc,71.09
2023-06-02T11:45:00,mcc,64.54
2023-06-02T11:46:00,mcc,66.63
2023-06-02T11:47:00,mcc,65.51
2023-06-02T11:48:00,mcc,63.37
2023-06-02T11:49:00,mcc,62.60
2023-06-02T11:50:00,mcc,62.47
2023-06-02T11:51:00,mcc,61.52
2023-06-02T11:52:00,mcc,61.70
2023-06-02T11:53:00,mcc,61.50
2023-06-02T11:54:00,mcc,62.83
2023-06-02T11:55:00,mcc,63.22
2023-06-02T11:56:00,mcc,62.67
2023-06-02T11:57:00,mcc,61.77
2023-06-02T11:58:00,mcc,61.84
2023-06-02T11:59:00,mcc,61.47
2023-06-02T12:00:00,mcc,63.65
2023-06-02T12:01:00,mcc,74.16
2023-06-02T12:02:00,mcc,73.98
2023-06-02T12:03:00,mcc,71.76
2023-06-02T12:04:00,mcc,71.70
2023-06-02T12:05:00,mcc,78.45
2023-06-02T12:06:00,mcc,63.04
2023-06-02T12:07:00,mcc,63.77
2023-06-02T12:08:00,mcc,65.50
2023-06-02T12:09:00,mcc,64.80
2023-06-02T12:10:00,mcc,64.60
2023-06-02T12:11:00,mcc,64.06
2023-06-02T12:12:00,mcc,64.38
2023-06-02T12:13:00,mcc,62.70
2023-06-02T12:14:00,mcc,61.48
2023-06-02T12:15:00,mcc,62.84
2023-06-02T12:16:00,mcc,63.19
2023-06-02T12:17:00,mcc,61.60
2023-06-02T12:18:00,mcc,62.69
2023-06-02T12:19:00,mcc,59.41
2023-06-02T12:20:00,mcc,59.71
2023-06-02T12:21:00,mcc,58.32
2023-06-02T12:22:00,mcc,59.81
2023-06-02T12:23:00,mcc,71.99
2023-06-02T12:24:00,mcc,61.38
2023-06-02T12:25:00,mcc,62.08
2023-06-02T12:26:00,mcc,63.35
2023-06-02T12:27:00,mcc,60.31
2023-06-02T12:28:00,mcc,62.10
2023-06-02T12:29:00,mcc,59.65
2023-06-02T12:30:00,mcc,59.96
2023-06-02T12:31:00,mcc,59.41
2023-06-02T12:32:00,mcc,60.58
2023-06-02T12:33:00,mcc,59.85
2023-06-02T12:34:00,mcc,61.62
2023-06-02T12:35:00,mcc,63.50
2023-06-02T12:36:00,mcc,64.33
2023-06-02T12:37:00,mcc,68.62
2023-06-02T12:38:00,mcc,66.07
2023-06-02T12:39:00,mcc,67.60
2023-06-02T12:40:00,mcc,67.93
2023-06-02T12:41:00,mcc,67.65
2023-06-02T12:42:00,mcc,83.79
2023-06-02T12:43:00,mcc,65.98
2023-06-02T12:44:00,mcc,68.98
2023-06-02T12:45:00,mcc,70.27
2023-06-02T12:46:00,mcc,69.61
2023-06-02T12:47:00,mcc,66.97
2023-06-02T12:48:00,mcc,65.93
2023-06-02T12:49:00,mcc,67.55
2023-06-02T12:50:00,mcc,64.09
2023-06-02T12:51:00,mcc,63.82
2023-06-02T12:52:00,mcc,63.89
2023-06-02T12:53:00,mcc,63.27
2023-06-02T12:54:00,mcc,63.58
2023-06-02T12:55:00,mcc,63.72
2023-06-02T12:56:00,mcc,62.09
2023-06-02T12:57:00,mcc,77.48
2023-06-02T12:58:00,mcc,61.87
2023-06-02T12:59:00,mcc,60.43
2023-06-02T13:00:00,mcc,68.85
2023-06-02T13:01:00,mcc,59.70
2023-06-02T13:02:00,mcc,57.13
2023-06-02T13:03:00,mcc,58.37
2023-06-02T13:04:00,mcc,59.54
2023-06-02T13:05:00,mcc,61.45
2023-06-02T13:06:00,mcc,60.42
2023-06-02T13:07:00,mcc,62.06
2023-06-02T13:08:00,mcc,63.03
2023-06-02T13:09:00,mcc,61.61
2023-06-02T13:10:00,mcc,69.80
2023-06-02T13:11:00,mcc,68.46
2023-06-02T13:12:00,mcc,69.61
2023-06-02T13:13:00,mcc,70.07
2023-06-02T13:14:00,mcc,69.55
2023-06-02T13:15:00,mcc,69.26
2023-06-02T13:16:00,mcc,70.14
2023-06-02T13:17:00,mcc,69.34
2023-06-02T13:18:00,mcc,67.67